EW8788 Weather Reports


time (UTC)temp
F
wind
direction
speed
knots
gust
knots
rain 1hr
in
rain 24hr
in
rain mn
in
humidity
%
barometer
mb
20260504081520 43 13 0.0 1.7 0.00 0.00 0.00 81 1015.4
20260504081019 43 13 0.0 1.7 0.00 0.00 0.00 80 1015.3
20260504080521 43 13 0.0 0.0 0.00 0.00 0.00 82 1015.3
20260504050532 39 13 0.0 1.7 0.00 0.00 0.00 82 1016.0
20260504045514 39 13 0.0 0.9 0.00 0.00 0.00 80 1016.1
20260504045014 39 13 0.0 0.9 0.00 0.00 0.00 81 1016.0
20260504044521 39 13 0.0 0.0 0.00 0.00 0.00 79 1016.1
20260504044016 39 13 0.0 1.7 0.00 0.00 0.00 78 1016.2
20260504043012 38 13 0.0 0.9 0.00 0.00 0.00 78 1016.1
20260504042513 37 0 0.9 1.7 0.00 0.00 0.00 78 1016.1
20260504041513 37 0 0.0 1.7 0.00 0.00 0.00 79 1016.1
20260504041008 37 0 0.0 1.7 0.00 0.00 0.00 78 1016.2
20260504040506 37 0 0.0 1.7 0.00 0.00 0.00 78 1016.2
20260504040005 38 0 0.9 0.9 0.00 0.00 0.00 77 1016.0
20260504035005 38 0 0.0 0.9 0.00 0.00 0.00 76 1016.1
20260504034002 38 0 0.0 1.7 0.00 0.00 0.00 77 1016.1
20260504033502 38 0 0.0 1.7 0.00 0.00 0.00 76 1016.1
20260504033005 38 0 0.0 1.7 0.00 0.00 0.00 76 1016.0
20260504032502 39 0 0.0 1.7 0.00 0.00 0.00 74 1015.9
20260504031957 38 0 0.9 0.9 0.00 0.00 0.00 75 1015.9
20260504031449 39 37 0.0 0.9 0.00 0.00 0.00 74 1015.9
20260504030947 39 35 0.0 0.9 0.00 0.00 0.00 74 1015.9
20260504025941 39 47 0.0 1.7 0.00 0.00 0.00 74 1015.8
20260504025441 39 47 0.0 1.7 0.00 0.00 0.00 74 1015.9
20260504024941 39 47 0.0 1.7 0.00 0.00 0.00 74 1015.9
20260504024435 39 47 0.0 1.7 0.00 0.00 0.00 73 1016.0
20260504023935 40 47 0.0 1.7 0.00 0.00 0.00 72 1015.9
20260504023430 40 47 0.0 0.0 0.00 0.00 0.00 71 1015.9
20260504022930 41 47 0.0 0.9 0.00 0.00 0.00 68 1015.8
20260504022431 41 47 0.0 0.9 0.00 0.00 0.00 70 1015.8
20260504021420 41 47 0.0 0.9 0.00 0.00 0.00 70 1015.7
20260504020919 42 47 0.0 1.7 0.00 0.00 0.00 67 1015.7
20260504015920 42 47 0.0 1.7 0.00 0.00 0.00 68 1015.6
20260504014918 43 47 0.0 0.0 0.00 0.00 0.00 67 1015.4
20260504014418 43 47 0.0 0.9 0.00 0.00 0.00 66 1015.4
20260504013919 43 47 0.0 0.9 0.00 0.00 0.00 65 1015.3
20260504013419 44 47 0.0 0.0 0.00 0.00 0.00 60 1015.2
20260504012920 44 47 0.0 0.0 0.00 0.00 0.00 62 1015.1
20260504012418 45 47 0.0 0.0 0.00 0.00 0.00 60 1015.0
20260504011418 46 47 0.0 1.7 0.00 0.00 0.00 58 1014.9
20260504010919 46 47 0.0 1.7 0.00 0.00 0.00 57 1014.9
20260504005906 46 310 0.0 1.7 0.00 0.00 0.00 58 1014.9
20260504005406 47 300 0.0 1.7 0.00 0.00 0.00 57 1014.9
20260504004912 49 300 0.0 0.0 0.00 0.00 0.00 51 1014.9
20260504003402 51 302 0.0 0.9 0.00 0.00 0.00 46 1014.8
20260504002904 54 302 0.0 0.9 0.00 0.00 0.00 37 1014.8
20260504002403 55 300 0.0 1.7 0.00 0.00 0.00 37 1014.9
20260504001903 55 302 0.9 1.7 0.00 0.00 0.00 37 1014.8
20260504001403 55 309 0.9 1.7 0.00 0.00 0.00 38 1014.8
20260504000903 55 300 0.9 1.7 0.00 0.00 0.00 37 1014.9
20260504000403 55 283 0.0 1.7 0.00 0.00 0.00 37 1014.9
20260503235902 56 282 0.0 1.7 0.00 0.00 0.00 38 1014.8
20260503235402 56 271 0.0 3.5 0.00 0.00 0.00 36 1014.8
20260503234903 57 279 0.9 3.5 0.00 0.00 0.00 36 1014.8
20260503233900 58 269 0.9 3.5 0.00 0.00 0.00 34 1014.7
20260503233402 58 282 0.9 4.3 0.00 0.00 0.00 34 1014.7
20260503232856 59 275 1.7 4.3 0.00 0.00 0.00 36 1014.6
20260503231351 60 305 0.9 9.6 0.00 0.00 0.00 33 1014.4
20260503230844 60 0 4.3 9.6 0.00 0.00 0.00 30 1014.5
20260503225841 60 0 2.6 5.2 0.00 0.00 0.00 30 1014.5
20260503225342 61 343 1.7 4.3 0.00 0.00 0.00 32 1014.5
20260503224839 61 293 2.6 7.8 0.00 0.00 0.00 30 1014.5
20260503224338 61 351 2.6 7.8 0.00 0.00 0.00 30 1014.5
20260503223840 61 292 1.7 4.3 0.00 0.00 0.00 31 1014.4
20260503223338 61 221 1.7 8.7 0.00 0.00 0.00 30 1014.3
20260503222838 61 255 3.5 8.7 0.00 0.00 0.00 29 1014.3
20260503222338 61 261 1.7 5.2 0.00 0.00 0.00 29 1014.4
20260503221836 61 289 1.7 6.1 0.00 0.00 0.00 31 1014.6
20260503221332 62 292 3.5 6.1 0.00 0.00 0.00 29 1014.5
20260503220832 62 316 3.5 8.7 0.00 0.00 0.00 30 1014.5
20260503220331 62 283 4.3 8.7 0.00 0.00 0.00 31 1014.6
20260503215331 62 259 0.9 9.6 0.00 0.00 0.00 31 1014.6
20260503214320 62 272 5.2 10.4 0.00 0.00 0.00 29 1014.7
20260503213819 62 4 5.2 10.4 0.00 0.00 0.00 28 1014.5
20260503213318 62 344 4.3 10.4 0.00 0.00 0.00 30 1014.6
20260503212320 63 296 6.1 11.3 0.00 0.00 0.00 30 1014.6
20260503211819 63 320 3.5 7.8 0.00 0.00 0.00 31 1014.6
20260503211319 63 279 2.6 8.7 0.00 0.00 0.00 31 1014.6
20260503210818 63 309 3.5 8.7 0.00 0.00 0.00 29 1014.6
20260503210319 62 278 2.6 9.6 0.00 0.00 0.00 29 1014.6
20260503205819 62 0 5.2 9.6 0.00 0.00 0.00 28 1014.8
20260503205318 63 0 4.3 9.6 0.00 0.00 0.00 31 1014.8
20260503204820 63 279 4.3 13.0 0.00 0.00 0.00 31 1014.7
20260503204318 62 264 5.2 13.0 0.00 0.00 0.00 28 1014.7
20260503203819 62 0 3.5 9.6 0.00 0.00 0.00 30 1014.7
20260503202818 63 269 3.5 8.7 0.00 0.00 0.00 30 1014.8
20260503201818 62 0 5.2 12.2 0.00 0.00 0.00 30 1014.9
20260503201319 62 240 3.5 10.4 0.00 0.00 0.00 28 1015.1
20260503200818 63 286 3.5 7.8 0.00 0.00 0.00 29 1015.1
20260503200320 62 305 1.7 9.6 0.00 0.00 0.00 29 1015.0
20260503195819 61 0 1.7 10.4 0.00 0.00 0.00 34 1015.0
20260503195318 63 0 6.1 10.4 0.00 0.00 0.00 34 1015.1
20260503194819 62 0 5.2 8.7 0.00 0.00 0.00 33 1015.2
20260503193820 62 306 3.5 12.2 0.00 0.00 0.00 30 1015.4
20260503193319 63 0 5.2 12.2 0.00 0.00 0.00 28 1015.6
20260503192818 62 292 5.2 7.8 0.00 0.00 0.00 28 1015.6
20260503192318 60 257 1.7 11.3 0.00 0.00 0.00 28 1015.6
20260503191819 62 0 4.3 11.3 0.00 0.00 0.00 30 1015.8
20260503191318 62 258 5.2 10.4 0.00 0.00 0.00 32 1015.9
20260503190819 62 0 4.3 10.4 0.00 0.00 0.00 29 1015.8
20260503190320 61 0 2.6 9.6 0.00 0.00 0.00 29 1015.8
20260503185818 61 25 3.5 12.2 0.00 0.00 0.00 30 1016.0
20260503185320 62 0 4.3 12.2 0.00 0.00 0.00 30 1016.3
20260503184820 62 0 5.2 10.4 0.00 0.00 0.00 31 1016.2
20260503184318 62 327 4.3 10.4 0.00 0.00 0.00 30 1016.2
20260503183818 61 0 4.3 9.6 0.00 0.00 0.00 32 1016.1
20260503183318 61 0 5.2 12.2 0.00 0.00 0.00 33 1016.4
20260503182820 61 347 6.1 12.2 0.00 0.00 0.00 34 1016.3
20260503182319 60 283 5.2 9.6 0.00 0.00 0.00 34 1016.3
20260503181820 60 245 2.6 6.1 0.00 0.00 0.00 33 1016.3
20260503180820 59 285 5.2 9.6 0.00 0.00 0.00 33 1016.4
20260503180319 60 275 4.3 9.6 0.00 0.00 0.00 34 1016.4
20260503175818 59 292 1.7 9.6 0.00 0.00 0.00 39 1016.4
20260503175318 60 329 5.2 10.4 0.00 0.00 0.00 33 1016.6
20260503174819 59 358 3.5 10.4 0.00 0.00 0.00 31 1016.6
20260503174319 60 296 5.2 8.7 0.00 0.00 0.00 33 1016.6
20260503173319 57 292 1.7 9.6 0.00 0.00 0.00 34 1016.6
20260503172816 60 276 3.5 8.7 0.00 0.00 0.00 33 1016.8
20260503172310 58 0 3.5 11.3 0.00 0.00 0.00 36 1017.0
20260503171804 60 261 4.3 11.3 0.00 0.00 0.00 36 1017.0
20260503171302 58 231 3.5 10.4 0.00 0.00 0.00 34 1017.0
20260503150726 55 309 4.3 10.4 0.00 0.00 0.00 40 1018.2
20260503150223 54 290 4.3 11.3 0.00 0.00 0.00 41 1018.0
20260503140217 51 338 5.2 12.2 0.00 0.00 0.00 44 1018.3
20260503130716 48 0 5.2 14.8 0.00 0.00 0.00 48 1018.2
20260503130214 48 0 6.1 14.8 0.00 0.00 0.00 48 1018.2
20260503110656 41 0 0.0 3.5 0.00 0.00 0.00 61 1017.4
20260503100133 39 313 0.9 1.7 0.00 0.00 0.00 69 1016.4